Regional Weather Roundup
Issued by NWS

Home | Current Version | Previous Version | Graphics & Text | Print | Product List | Glossary On
Versions: 1 2 3 4 5 6 7 8 9 10 11 12 13 14 15 16 17 18 19 20 21 22 23 24 25 26 27 28 29 30 31 32 33 34 35 36 37 38 39 40 41 42 43 44 45 46 47 48 49 50
000
ASUS43 KMPX 280401
RWRMN
WEATHER ROUNDUP FOR MINNESOTA
NATIONAL WEATHER SERVICE TWIN CITIES/CHANHASSEN MN
1100 PM CDT MON APR 27 2015


NOTE: "FAIR" INDICATES FEW OR NO CLOUDS BELOW 12,000 FEET WITH NO
SIGNIFICANT WEATHER AND/OR OBSTRUCTIONS TO VISIBILITY. N/A MEANS
CURRENT SKY AND/OR WEATHER CONDITIONS ARE NOT AVAILABLE.

MNZ060>063-068>070-280500-
   Twin Cities Metro

CITY           SKY/WX    TMP DP  RH WIND       PRES   REMARKS
TWIN CITIES    MOCLDY    57  28  33 CALM      30.14S
ST PAUL        CLEAR     51  37  58 CALM      30.14F
CRYSTAL        CLEAR     51  28  41 CALM      30.13F
BLAINE         CLEAR     52  25  35 CALM      30.14S
LAKEVILLE      CLEAR     45  34  65 CALM      30.15S
EDEN PRAIRIE   CLEAR     54  29  38 CALM      30.13F
SOUTH ST PAUL  CLEAR     51  32  48 CALM      30.14S
LAKE ELMO      FAIR      45  32  61 CALM      30.15S
$$
MNZ001>005-007-008-013>017-022>024-027-028-280500-
   Northwest Minnesota

CITY           SKY/WX    TMP DP  RH WIND       PRES   REMARKS
BEMIDJI        PTCLDY    53  40  61 NW8       30.16R
HALLOCK        CLOUDY    45  43  93 N7        30.25S
ROSEAU         LGT RAIN  48  45  87 NW7       30.23R
WARROAD        DRIZZLE   48  43  81 NW9       30.22R
THIEF RVR FALL CLOUDY    46  41  81 N12       30.23S
CROOKSTON      DRIZZLE   46  43  87 N14       30.25S
FOSSTON        DRIZZLE   50  39  66 NW9       30.22R
DETROIT LAKES  MOCLDY    54  41  62 NW15G22   30.20R
MOORHEAD       CLOUDY    54  39  58 N21       30.22R
PARK RAPIDS    PTCLDY    57  29  34 N8        30.14S
MAHNOMEN       CLOUDY    54  40  60 N14       30.19R
$$
MNZ006-009>011-018-025>026-280500-
   North Central Minnesota

CITY           SKY/WX    TMP DP  RH WIND       PRES   REMARKS
BAUDETTE       CLOUDY    50  41  71 N12       30.19R
FLAG ISLAND    CLOUDY    46  41  81 NW16      30.20S
INTL FALLS     PTCLDY    47  32  56 CALM      30.15R
WASKISH        MOCLDY    54  43  66 N8        30.17R
BIG FORK       PTCLDY    45  28  53 CALM      30.14F
LONGVILLE      FAIR      45  36  70 CALM      30.13F
GRAND RAPIDS   PTCLDY    46  27  46 CALM      30.13F
CRANE LAKE     PTCLDY    37  30  75 CALM      30.16S
ORR            MOCLDY    46  25  42 CALM      30.12S
COOK           MOCLDY    43  34  70 CALM      30.14F
WALKER         FAIR      56  29  34 N6        30.15R
$$
MNZ012-019>021-037-280500-
   Northeast Minnesota

CITY           SKY/WX    TMP DP  RH WIND       PRES   REMARKS
DULUTH         PTCLDY    47  27  45 E7        30.14F
ELY            CLEAR     39  28  65 CALM      30.14F
HIBBING        PTCLDY    42  27  55 CALM      30.13S
EVELETH        PTCLDY    39  28  65 NE3       30.15S
DULUTH HARBOR  PTCLDY    39  36  87 CALM      30.17S
TWO HARBORS    PTCLDY    45  32  61 N3        30.14S
SILVER BAY     PTCLDY    36  28  75 CALM      30.14F
GRAND MARAIS     N/A     36  29  75 CALM      30.17S
G MARAIS ARPRT PTCLDY    39  25  56 SW3       30.16S
$$
MNZ029>031-032-039>041-046>048-054>057-064-280500-
   West Central Minnesota

CITY           SKY/WX    TMP DP  RH WIND       PRES   REMARKS
FERGUS FALLS   PTCLDY    54  37  54 N13       30.18R
WHEATON        CLEAR     54  39  58 NW10      30.20R
MORRIS         CLEAR     54  27  35 W5        30.15S
ALEXANDRIA     PTCLDY    51  27  39 W3        30.16F
ELBOW LAKE     FAIR      53  31  42 SW8       30.15F
WADENA         PTCLDY    45  30  57 CALM      30.14S
GLENWOOD       PTCLDY    54  27  35 W3        30.16S
APPLETON       CLEAR     48  37  66 CALM      30.16S
BENSON         CLEAR     45  32  61 CALM      30.16F
ORTONVILLE     CLEAR     52  34  50 CALM      30.16S
MADISON        PTCLDY    48  21  34 CALM      30.17S
WILLMAR        FAIR      52  30  43 CALM      30.17S
$$
MNZ033>034-036-042>043-049>051-058-059-280500-
   Central Minnesota

CITY           SKY/WX    TMP DP  RH WIND       PRES   REMARKS
ST CLOUD       PTCLDY    48  30  49 CALM      30.14S
SAUK CENTRE    FAIR      49  31  49 W3        30.16S
PAYNESVILLE    MOCLDY    43  29  59 SW3       30.16S
AITKIN         CLEAR     41  34  75 CALM      30.12S
PINE RIVER     CLEAR     46  34  61 CALM      30.17S
BRAINERD       CLEAR     47  29  49 CALM      30.14S
STAPLES        CLEAR     50  28  43 CALM      30.14F
LONG PRAIRIE   FAIR      46  32  57 CALM      30.15F
LITTLE FALLS   PTCLDY    45  32  61 CALM      30.14S
LITCHFIELD     MOCLDY    52  30  43 W3        30.16S
BUFFALO        PTCLDY    48  33  54 CALM      30.16S
MAPLE LAKE     PTCLDY    46  37  70 CALM      30.16S
$$
MNZ037-044-045-052-053-280500-
   East Central Minnesota

CITY           SKY/WX    TMP DP  RH WIND       PRES   REMARKS
PRINCETON      CLEAR     45  32  61 CALM      30.14S
MORA           PTCLDY    41  32  70 CALM      30.15S
CAMBRIDGE      CLEAR     50  30  46 CALM      30.12F
RUSH CITY      MOCLDY    47  32  54 CALM      30.13F
MOOSE LAKE     CLEAR     46  28  49 CALM      30.13S
HINCKLEY       FAIR      45  30  57 CALM      30.13S
CLOQUET        PTCLDY    43  28  56 CALM      30.15S
MCGREGOR       CLEAR     43  30  61 E3        30.14S
$$
MNZ071>073-080-081-089-090-097-098-280500-
   Southwest Minnesota

CITY           SKY/WX    TMP DP  RH WIND       PRES   REMARKS
MONTEVIDEO     CLEAR     54  19  26 CALM      30.17F
GRANITE FALLS  CLEAR     48  20  33 CALM      30.18S
CANBY          PTCLDY    46  32  58 SW5       30.18S
MARSHALL       PTCLDY    48  21  34 W5        30.17S
REDWOOD FALLS  PTCLDY    56  23  27 CALM      30.16S
OLIVIA         PTCLDY    46  21  36 CALM      30.16S
PIPESTONE      MOCLDY    52  27  37 NE3       30.18S
WINDOM         PTCLDY    48  25  40 CALM      30.17S
WORTHINGTON    PTCLDY    46  21  36 NW3       30.19R
JACKSON        CLEAR     50  19  29 NW3       30.18S
TRACY          CLEAR     52  24  33 W3        30.18S
SLAYTON        PTCLDY    50  23  34 CALM      30.19S
$$
MNZ065>067-074>077-082>085-091>093-280500-
   South Central Minnesota

CITY           SKY/WX    TMP DP  RH WIND       PRES   REMARKS
MANKATO        CLEAR     54  25  32 CALM      30.16S
NEW ULM        PTCLDY    54  21  28 CALM      30.16S
ST JAMES       PTCLDY    48  19  32 CALM      30.17S
FAIRMONT       PTCLDY    50  27  40 CALM      30.16S
GLENCOE        PTCLDY    48  28  46 CALM      30.15S
FARIBAULT      PTCLDY    45  30  57 CALM      30.15F
OWATONNA       CLEAR     43  28  56 CALM      30.16S
WASECA         CLEAR     50  28  43 CALM      30.17S
ALBERT LEA     CLEAR     52  36  54 CALM      30.16S
$$
MNZ078>079-086>088-094>096-280500-
   Southeast Minnesota

CITY           SKY/WX    TMP DP  RH WIND       PRES   REMARKS
ROCHESTER      CLEAR     53  29  39 NW8       30.16S
RED WING       CLEAR     46  30  53 NW3       30.13S
STANTON        CLEAR     45  29  55 S3        30.14S
DODGE CENTER   PTCLDY    55  25  30 NW3       30.15S
WINONA         CLEAR     52  37  58 CALM      30.13S
AUSTIN         CLEAR     48  34  57 CALM      30.15S
PRESTON        CLEAR     50  31  49 NW6       30.15R
$$
ABBREVIATIONS USED IN REMARKS
   TC - TEMPERATURES IN CELSIUS
  WCI - WIND CHILL INDEX
   HX - HEAT INDEX
  VSB - VISIBILITY
$$


USA.gov is the U.S. government's official web portal to all federal, state and local government web resources and services.